sat.trackr.live / text

‹ back to catalog

STARLINK-5335

NORAD 56508 · 2023-065F

PAYLOAD ACTIVE UNKNOWN

§ Identity

Operator
Country
US
Launch date
2023-05-14
Launch site
AFETR
Launch vehicle
Mass (kg)
RCS (m²)

Purposes: comms

External: N2YO · Heavens-Above · Gunter

§ Orbital elements

Epoch: 2026-05-24T23:47:51.319680Z

Period
94.27 min
Inclination
43.0032°
Eccentricity
0.0001493
Mean motion
15.27578951 rev/d
Perigee alt
482.0 km
Apogee alt
484.1 km
Semi-major
6,861.2 km
B*
5.1748e-5
RAAN
141.1808°
Arg perigee
264.5482°
Mean anomaly
95.5200°
Rev number
16,827

§ Raw data

STARLINK-53351 56508U 23065F   26144.99156620  .00001162  00000+0  51748-4 0  99932 56508  43.0032 141.1808 0001493 264.5482  95.5200 15.27578951168274

JSON: /api/v1/satellites/56508 · /tle

For live sub-satellite position, see the globe view (requires WebGL).

§ Visibility from observer

Set your observer location to see the next 7 days of passes ≥ 10°. The values pass through the URL so the page stays shareable.

No JS? Fill the form by hand. The geolocation button needs JavaScript.